Temperature
17 17 17 17 17 17 17 17 17 17 16 16 16 16 16 15 15 15 15 14 14 14 14 14 14 14 14 15 15 15 15 15 16 16 16 15 14 14 14 14 14 14 14
17 17 17 17 17 17 17 17 17 17 17 16 16 16 16 15 15 15 15 15 15 14 14 14 14 14 14 14 14 14 15 15 15 15 15 15 14 14 14 14 14 14 14
17 17 17 17 17 17 17 17 17 17 17 16 16 16 16 16 15 15 15 15 15 15 14 14 14 14 14 14 14 14 14 14 14 14 15 15 14 14 14 14 14 14 14
17 17 17 17 17 17 17 17 17 17 17 16 16 16 16 16 15 15 15 15 15 15 14 14 14 14 14 14 14 14 14 14 14 14 14 15 14 14 14 14 14 14 14
17 17 17 17 17 17 17 17 17 17 16 16 16 16 16 16 16 15 15 15 15 15 14 14 14 14 14 14 14 14 13 13 14 14 14 14 14 14 14 14 14 14 14
17 17 17 17 17 17 17 17 17 17 17 16 16 16 16 16 16 16 15 15 15 14 14 14 14 14 14 14 14 14 13 13 13 14 14 14 14 14 14 14 14 14 14
17 17 17 17 17 17 17 16 16 16 16 16 16 16 16 16 16 15 15 15 14 14 14 14 14 14 14 13 14 14 13 13 13 13 13 13 13 13 13 13 13 13 13
17 17 17 16 16 16 16 16 16 16 16 16 16 15 15 15 15 15 15 15 14 14 14 13 13 13 13 13 13 13 13 13 13 13 13 13 12 12 12 12 12 12 12
16 16 16 16 16 16 16 16 16 16 16 15 15 15 15 15 15 15 15 14 14 14 13 13 13 13 13 13 12 12 12 12 12 12 12 12 12 12 12 12 12 12 12
16 15 16 16 16 16 16 16 15 15 15 15 15 15 15 15 14 14 14 13 13 13 13 12 12 12 12 12 12 12 12 12 12 11 11 12 12 12 11 11 11 11 12
15 15 15 15 15 15 15 15 15 15 15 14 14 14 14 14 14 14 13 13 13 12 12 12 12 12 12 12 11 11 11 11 11 11 11 11 11 11 11 11 11 10 11
14 14 14 14 14 14 14 14 14 14 14 14 13 13 13 13 13 13 12 12 12 12 12 11 11 11 11 11 11 11 11 11 10 10 11 11 11 11 10 10 10 10 10
14 14 13 13 13 13 13 13 13 13 13 13 13 13 12 12 12 11 11 11 11 11 11 11 11 11 10 10 10 10 10 10 10 10 10 10 10 10 10 9 9 9 9
13 13 13 13 13 13 12 12 12 12 12 12 12 12 11 11 11 11 11 10 10 10 10 10 10 10 10 9 9 9 9 9 9 9 9 9 9 9 9 9 9 9 9
12 12 12 12 12 12 12 11 11 11 11 11 11 11 10 10 10 10 10 10 10 9 9 9 9 9 9 9 9 9 9 9 9 8 8 8 8 8 8 8 8 8 8
11 11 11 11 11 11 11 11 11 10 10 10 10 10 10 10 9 9 9 9 9 9 9 9 9 9 9 9 8 8 8 8 7 7 7 7 7 7 7 7 7 7 7
11 11 11 10 10 10 10 10 10 10 10 9 9 9 9 9 9 9 8 8 8 8 8 8 8 8 7 7 7 7 7 7 6 6 6 6 6 6 6 6 6 6 6
10 10 10 10 10 10 10 10 10 10 9 9 9 8 8 8 8 8 8 8 7 7 7 7 7 7 6 6 6 6 6 6 6 5 5 5 5 5 5 5 6 6 6
10 10 9 9 10 9 9 9 9 9 9 9 8 8 7 7 7 7 7 7 7 7 6 6 6 6 5 5 5 5 5 5 5 4 5 5 5 5 5 5 5 5 5
9 9 9 9 9 9 9 9 9 8 8 8 7 7 7 7 7 6 6 6 6 6 5 5 5 5 4 4 4 4 4 4 4 4 4 4 4 4 4 4 4 4 4
9 9 8 9 9 8 8 8 8 8 7 7 6 6 6 6 6 5 5 5 5 4 4 4 4 4 4 3 3 3 3 3 3 3 3 3 3 3 3 3 3 3 3
9 9 8 8 8 7 7 7 7 7 7 6 6 5 5 5 5 5 4 4 4 3 3 3 3 3 2 3 2 2 2 2 2 2 2 2 2 2 2 2 2 2 2
8 8 8 8 7 7 7 7 6 6 6 5 5 5 4 4 4 3 3 3 2 2 2 2 2 2 2 2 2 2 1 1 1 1 1 1 1 1 1 2 2 2 2
8 8 7 7 7 6 6 6 5 5 5 5 4 4 4 3 3 2 2 2 2 1 1 1 1 1 1 1 1 1 1 1 1 1 1 1 1 1 1 1 1 1 1
7 7 7 6 6 6 5 5 5 4 4 4 3 3 3 2 2 2 1 1 1 1 1 1 0 0 0 0 -0 -0 0 0 0 1 1 1 1 1 1 1 1 1 1
6 6 6 5 5 5 4 4 4 4 3 3 3 2 2 2 1 1 1 1 0 0 0 0 -0 -0 -0 -0 -0 0 0 0 0 0 1 1 1 1 1 1 1 1 1
Wind_Speed
12 12 11 10 10 11 10 11 10 10 10 11 11 10 10 10 9 9 8 7 8 8 7 8 8 7 6 5 5 6 6 6 7 5 4 4 5 7 5 8 9 10 11
13 12 11 10 10 11 11 12 11 11 11 11 11 11 11 10 10 11 10 10 10 9 9 9 9 7 8 7 6 7 6 6 7 8 6 6 7 8 8 8 10 11 11
13 12 12 11 11 11 11 12 12 11 11 11 11 11 11 11 11 11 11 10 10 10 10 10 10 9 9 8 8 8 7 7 7 8 8 6 7 7 8 9 10 9 12
14 13 13 12 12 12 11 11 11 11 11 10 10 10 10 10 10 10 10 10 10 10 10 10 10 10 10 10 9 9 8 8 8 9 9 7 7 7 7 8 9 8 9
14 13 13 12 12 11 11 11 11 10 11 10 10 10 10 9 9 10 10 10 10 10 10 10 10 9 8 8 8 8 9 9 9 9 9 8 8 6 7 8 9 8 8
12 12 12 11 11 11 11 11 10 11 10 10 10 10 10 9 7 8 9 9 10 10 10 10 10 10 10 10 10 9 9 10 10 9 9 9 8 8 7 8 9 9 10
11 11 11 11 11 11 11 10 10 10 10 9 9 9 9 7 6 9 10 9 9 9 9 9 9 9 10 10 11 13 12 12 11 11 12 11 9 8 8 10 9 10 11
9 9 9 9 9 9 9 9 9 8 8 8 8 8 7 6 7 8 9 10 9 9 9 9 9 8 7 7 8 10 11 11 12 12 12 12 10 8 8 10 11 11 12
7 7 6 7 7 8 8 8 7 6 6 6 6 6 5 4 5 6 7 8 8 9 8 8 8 7 4 4 7 9 10 10 10 11 11 11 10 9 8 9 10 10 12
6 5 5 4 4 5 5 5 5 5 5 5 4 4 4 3 3 5 7 6 6 6 6 6 5 5 3 4 8 9 10 10 9 8 9 12 13 13 13 12 11 11 11
7 7 6 6 5 4 4 3 4 5 4 4 3 3 2 2 4 4 4 4 4 4 4 4 3 4 4 5 7 8 8 8 9 9 9 9 9 9 9 10 10 10 12
10 10 9 7 6 6 5 5 4 4 5 4 4 3 2 3 3 3 3 2 3 3 3 3 1 3 4 5 5 5 6 7 8 8 8 8 7 7 7 7 10 12 13
11 11 10 10 9 8 7 6 5 4 4 3 3 3 3 3 3 4 3 2 2 3 2 1 0 2 4 5 6 6 6 6 6 7 7 7 7 7 7 7 10 11 13
12 11 10 10 10 10 8 7 6 6 5 4 4 3 3 3 4 3 1 1 1 1 1 1 4 5 5 4 4 5 5 5 5 6 7 7 6 6 7 7 8 8 9
11 10 10 10 10 10 10 9 9 9 7 6 5 5 4 4 5 5 4 3 3 2 3 2 2 2 3 3 3 3 4 4 5 5 6 6 6 6 7 6 7 8 9
10 9 8 8 7 7 8 9 14 11 12 13 12 9 8 9 6 6 5 5 4 3 4 3 3 3 4 4 4 4 4 4 5 6 6 7 7 7 7 7 8 8 10
10 8 7 7 6 6 6 6 6 8 10 11 11 11 9 7 6 5 4 3 3 4 3 3 3 4 4 4 5 5 5 5 5 6 6 6 7 7 8 8 9 9 9
9 8 7 6 5 5 5 4 4 4 4 5 8 9 7 5 4 3 3 3 1 2 3 4 4 4 4 5 5 6 6 6 6 6 6 7 7 8 8 9 9 10 10
8 7 6 6 5 5 4 4 4 4 4 4 4 5 4 3 5 1 2 3 4 4 4 4 4 5 5 6 6 6 7 7 7 7 7 8 8 8 9 9 10 11 11
7 8 6 5 5 5 5 4 4 4 4 4 4 5 4 3 3 3 3 5 5 5 5 6 6 6 6 6 7 7 7 7 8 7 8 8 8 9 10 10 10 11 11
5 5 3 4 5 5 5 4 4 4 4 4 5 7 7 5 5 6 5 5 6 6 6 7 7 7 7 7 7 8 9 8 8 8 8 8 9 9 10 10 11 11 11
4 4 4 5 5 5 4 4 4 4 5 5 4 4 3 4 5 6 6 7 7 7 7 7 7 7 7 8 8 9 9 9 8 8 9 9 9 10 10 10 11 11 11
4 4 4 4 4 3 3 4 4 4 5 5 4 5 5 6 6 6 6 7 6 7 7 7 7 7 9 10 10 9 9 9 9 10 11 11 10 10 10 11 12 13 12
4 3 4 4 4 4 4 4 4 4 4 5 5 5 5 5 5 6 6 6 7 7 8 8 8 10 11 11 10 10 10 12 14 13 13 12 12 11 11 11 12 13 12
4 4 4 4 4 4 4 5 5 5 5 5 5 5 6 6 6 6 6 6 7 7 9 9 8 10 12 13 12 12 14 15 15 14 13 11 12 12 12 13 12 12 12
5 5 5 5 5 5 5 5 5 5 5 5 5 5 6 6 6 7 7 8 9 8 9 9 10 12 13 12 14 16 16 16 15 15 14 11 11 10 11 10 13 12 13
Wind_Direction
182 183 185 187 190 193 197 201 199 196 194 196 198 201 202 203 205 210 223 214 220 222 221 221 227 243 237 232 232 238 242 248 258 257 234 216 218 251 227 236 243 241 237
182 182 185 186 190 196 200 201 197 197 199 200 203 204 206 208 208 212 219 219 221 223 223 224 225 222 225 243 241 240 242 249 255 262 254 233 222 233 239 247 251 247 255
180 183 187 189 192 198 201 199 197 198 201 203 205 210 213 214 214 216 220 223 225 228 227 226 227 228 228 232 235 242 240 235 242 254 253 246 239 233 237 243 249 253 260
182 185 189 193 195 196 197 196 197 199 201 204 207 212 217 219 221 222 221 224 227 230 231 233 234 232 231 233 233 240 246 248 242 249 254 247 242 234 240 251 250 236 249
185 190 193 194 195 198 199 200 199 201 206 208 212 215 218 220 223 222 223 224 226 229 231 233 236 237 243 242 247 239 236 241 244 244 250 251 248 243 245 251 258 262 252
188 193 193 193 194 198 200 201 202 204 210 211 215 217 219 225 204 207 227 233 230 232 234 234 233 226 229 230 251 267 269 252 253 255 254 254 257 256 259 265 269 269 269
189 193 192 193 194 198 201 201 204 205 207 213 217 220 224 227 191 197 214 236 239 238 238 239 242 236 222 231 225 228 243 252 258 261 263 264 264 261 265 262 262 269 274
184 188 190 192 192 193 197 201 203 204 205 209 214 217 222 221 183 197 206 225 240 239 238 238 240 249 241 240 244 240 241 239 238 242 255 262 268 274 263 263 271 265 264
163 169 177 186 189 192 196 200 202 202 203 205 209 211 214 203 169 192 207 220 229 236 238 238 238 239 229 223 246 254 256 255 244 235 244 257 271 273 268 265 263 263 267
137 141 145 152 159 174 182 186 182 183 188 192 194 200 201 202 156 181 206 223 229 233 231 231 225 233 232 219 244 252 257 261 265 252 240 245 249 246 231 240 257 263 270
109 107 105 108 114 117 127 144 154 159 157 157 152 146 139 129 122 139 191 222 235 236 237 235 216 182 219 230 242 252 262 272 268 262 255 250 247 246 242 238 245 256 267
98 94 89 84 86 95 102 104 114 126 131 131 129 118 101 96 87 111 150 213 276 250 255 265 189 157 209 230 238 256 268 265 262 262 260 259 259 258 259 259 256 256 259
93 90 86 81 77 77 84 92 97 101 104 110 113 111 99 87 98 110 133 178 235 262 289 46 75 202 224 228 223 236 249 256 264 267 270 272 273 274 272 267 262 257 258
90 88 86 82 75 67 60 62 65 65 71 76 81 83 82 76 53 41 42 89 165 232 289 176 193 214 235 255 237 230 250 272 282 282 283 287 289 283 276 278 279 279 277
87 85 84 81 78 73 66 54 58 54 50 51 55 57 53 61 46 26 16 21 6 12 322 282 275 272 272 278 283 289 287 281 277 283 289 289 290 290 287 285 283 282 280
88 84 83 83 83 85 86 79 60 66 69 63 53 54 73 69 64 51 40 28 9 331 300 294 304 307 311 317 314 313 310 311 310 306 300 296 295 293 292 289 284 282 283
81 78 78 76 79 81 85 91 94 89 85 80 75 68 69 69 65 52 30 355 307 289 300 338 341 339 337 334 327 322 318 320 316 305 302 303 301 296 294 291 289 288 286
81 78 74 75 73 72 72 72 72 75 92 94 98 95 94 93 83 50 336 319 3 345 347 353 347 342 335 327 321 319 316 314 310 306 302 300 298 295 292 290 288 288 289
69 68 65 66 66 63 59 60 59 56 54 56 67 95 110 141 159 148 310 0 3 2 358 354 348 342 336 329 324 318 316 312 312 307 301 301 298 296 295 295 294 292 288
74 58 46 60 63 61 53 48 49 49 47 44 43 36 24 7 19 34 25 13 2 359 352 347 343 336 331 326 323 319 315 311 309 303 305 305 302 300 299 298 297 297 295
78 83 76 56 56 51 46 42 39 36 39 43 49 51 1 358 12 14 11 10 1 355 353 350 342 336 333 328 323 319 316 312 311 310 309 308 306 304 302 299 297 294 294
60 61 56 55 55 46 35 33 34 37 43 46 44 56 21 2 20 16 12 12 10 4 357 349 342 343 341 336 331 325 319 316 319 321 317 312 307 302 299 297 296 297 297
49 55 60 59 59 65 40 41 39 39 38 34 30 28 27 23 22 19 12 9 4 0 358 352 348 348 348 339 334 330 328 331 329 321 312 306 303 300 299 298 299 299 298
54 49 51 55 49 45 43 40 39 36 31 28 24 21 20 20 19 17 9 5 359 357 354 350 346 344 342 338 334 333 343 340 327 314 309 303 298 295 294 293 294 294 295
53 49 48 49 43 39 38 34 32 28 26 25 22 19 17 15 14 11 6 1 352 349 346 344 343 341 339 335 336 338 342 334 324 316 308 298 294 294 295 295 294 295 294
57 53 49 47 45 38 34 33 32 28 26 25 23 21 16 13 12 7 2 357 348 346 344 342 342 340 338 337 343 340 333 326 320 312 302 295 293 294 299 297 297 297 297
Height
1511 1515 1519 1523 1527 1530 1533 1536 1539 1542 1544 1547 1549 1551 1552 1554 1555 1556 1558 1559 1559 1561 1561 1562 1563 1564 1565 1566 1567 1567 1568 1569 1569 1569 1569 1569 1568 1568 1569 1568 1568 1568 1568
1510 1514 1517 1521 1524 1527 1529 1532 1535 1538 1541 1544 1546 1548 1550 1551 1552 1554 1555 1556 1557 1558 1559 1559 1560 1561 1561 1563 1564 1564 1565 1565 1566 1566 1566 1566 1565 1564 1564 1564 1565 1565 1565
1509 1512 1515 1519 1521 1524 1526 1528 1532 1535 1538 1541 1543 1545 1547 1548 1550 1551 1552 1553 1554 1555 1556 1556 1557 1558 1558 1559 1559 1561 1561 1562 1562 1562 1562 1562 1562 1561 1561 1560 1560 1559 1560
1507 1510 1513 1516 1519 1522 1524 1526 1529 1532 1535 1537 1540 1542 1544 1545 1546 1547 1548 1549 1550 1551 1552 1553 1553 1554 1555 1555 1556 1556 1557 1558 1558 1558 1558 1558 1558 1557 1557 1557 1557 1556 1555
1505 1508 1511 1514 1517 1519 1522 1524 1526 1529 1531 1534 1536 1538 1539 1541 1542 1544 1544 1545 1546 1547 1547 1548 1549 1549 1550 1551 1552 1553 1553 1553 1554 1554 1554 1554 1554 1553 1553 1553 1552 1552 1551
1502 1505 1508 1511 1513 1516 1518 1521 1523 1525 1528 1530 1532 1534 1535 1537 1538 1539 1540 1541 1542 1542 1543 1543 1544 1544 1545 1545 1546 1547 1548 1549 1549 1549 1549 1549 1549 1549 1549 1548 1548 1547 1546
1499 1503 1505 1508 1510 1513 1515 1518 1520 1522 1524 1526 1528 1529 1530 1532 1533 1535 1535 1536 1537 1537 1538 1538 1539 1540 1540 1540 1540 1541 1542 1542 1543 1543 1543 1543 1543 1543 1543 1542 1541 1541 1540
1497 1500 1503 1505 1507 1509 1512 1514 1516 1518 1519 1521 1523 1525 1526 1527 1529 1530 1531 1531 1532 1532 1533 1533 1533 1534 1535 1535 1535 1536 1536 1536 1536 1537 1536 1537 1537 1537 1536 1536 1535 1534 1532
1495 1497 1500 1502 1504 1506 1508 1510 1512 1514 1516 1517 1519 1521 1522 1522 1523 1525 1526 1526 1526 1527 1527 1528 1528 1529 1529 1529 1530 1530 1530 1531 1531 1530 1530 1530 1530 1530 1530 1529 1529 1528 1526
1493 1495 1497 1499 1501 1503 1505 1507 1509 1511 1512 1514 1515 1517 1518 1518 1519 1520 1521 1521 1522 1522 1522 1523 1523 1523 1523 1524 1524 1524 1525 1525 1525 1524 1523 1522 1522 1522 1522 1522 1521 1521 1520
1492 1494 1496 1498 1499 1501 1503 1505 1506 1508 1509 1511 1512 1513 1514 1515 1515 1516 1517 1517 1518 1518 1519 1519 1518 1518 1518 1518 1519 1519 1519 1519 1518 1517 1517 1517 1516 1515 1515 1514 1514 1514 1513
1493 1494 1496 1497 1499 1500 1502 1503 1505 1506 1507 1508 1509 1511 1511 1512 1512 1513 1513 1514 1514 1514 1514 1515 1514 1514 1514 1513 1514 1513 1513 1513 1512 1512 1511 1511 1510 1509 1509 1508 1507 1506 1505
1494 1495 1497 1498 1499 1501 1502 1503 1504 1505 1506 1508 1509 1509 1510 1510 1510 1510 1510 1510 1510 1510 1510 1510 1510 1509 1509 1509 1509 1509 1508 1508 1508 1507 1506 1505 1504 1503 1502 1501 1500 1499 1497
1496 1497 1498 1500 1501 1502 1503 1504 1505 1506 1506 1507 1508 1508 1509 1509 1509 1509 1508 1508 1508 1507 1507 1507 1506 1506 1506 1506 1505 1505 1504 1504 1503 1502 1501 1500 1499 1498 1497 1496 1494 1493 1491
1499 1500 1501 1502 1503 1503 1504 1504 1505 1505 1506 1507 1507 1507 1508 1508 1507 1507 1507 1506 1506 1505 1504 1505 1505 1504 1504 1503 1503 1502 1501 1500 1499 1497 1496 1495 1494 1493 1491 1490 1488 1486 1485
1502 1503 1505 1505 1506 1506 1507 1507 1507 1507 1507 1507 1507 1507 1507 1507 1506 1506 1506 1505 1504 1503 1503 1504 1503 1502 1501 1500 1499 1498 1497 1496 1495 1493 1492 1490 1489 1487 1486 1484 1483 1481 1479
1505 1506 1507 1508 1508 1509 1510 1509 1509 1509 1508 1508 1508 1507 1507 1506 1506 1505 1504 1504 1503 1503 1503 1502 1501 1500 1499 1498 1496 1495 1494 1492 1490 1489 1488 1486 1484 1483 1481 1479 1477 1476 1474
1508 1508 1508 1509 1510 1511 1511 1511 1511 1511 1510 1509 1508 1507 1507 1506 1505 1504 1504 1503 1503 1502 1502 1501 1499 1498 1497 1495 1494 1492 1491 1489 1487 1486 1484 1482 1480 1478 1476 1474 1473 1471 1468
1510 1510 1511 1511 1512 1512 1512 1512 1512 1511 1511 1511 1510 1508 1507 1506 1505 1504 1504 1504 1503 1502 1500 1499 1498 1496 1495 1493 1491 1490 1488 1486 1484 1482 1480 1478 1476 1474 1472 1470 1468 1465 1463
1512 1512 1512 1513 1513 1513 1512 1512 1512 1512 1511 1511 1510 1509 1508 1507 1507 1505 1504 1503 1502 1501 1499 1498 1496 1494 1493 1491 1489 1487 1485 1483 1480 1478 1476 1474 1472 1469 1467 1465 1462 1460 1457
1515 1514 1514 1514 1514 1514 1514 1513 1513 1512 1511 1511 1510 1508 1507 1507 1506 1505 1504 1502 1501 1499 1498 1496 1494 1492 1490 1488 1486 1484 1481 1479 1476 1474 1472 1469 1467 1464 1462 1459 1457 1454 1452
1516 1516 1516 1515 1515 1514 1514 1514 1513 1512 1511 1511 1510 1509 1507 1507 1505 1504 1502 1501 1499 1497 1495 1493 1492 1489 1487 1485 1483 1480 1477 1475 1472 1469 1467 1464 1461 1459 1456 1454 1451 1449 1446
1517 1516 1516 1516 1515 1514 1514 1514 1513 1512 1511 1511 1510 1509 1508 1506 1505 1503 1502 1500 1498 1496 1493 1491 1489 1487 1484 1481 1479 1476 1473 1470 1467 1464 1461 1459 1456 1453 1451 1448 1446 1443 1440
1517 1516 1516 1516 1516 1515 1514 1514 1513 1512 1511 1510 1509 1508 1507 1505 1504 1502 1501 1499 1497 1494 1492 1489 1487 1484 1481 1478 1476 1473 1469 1466 1463 1459 1457 1454 1451 1448 1446 1443 1440 1438 1435
1517 1517 1516 1516 1516 1515 1514 1514 1513 1512 1511 1510 1509 1508 1506 1505 1503 1501 1499 1497 1495 1493 1490 1487 1485 1482 1479 1476 1473 1469 1465 1462 1458 1455 1452 1449 1446 1444 1441 1438 1435 1432 1430
1517 1516 1516 1516 1515 1515 1514 1513 1512 1511 1510 1509 1508 1507 1505 1504 1502 1500 1498 1496 1493 1491 1488 1486 1483 1479 1476 1473 1469 1465 1462 1458 1454 1451 1448 1444 1441 1439 1436 1433 1430 1428 1425